Regional Weather Roundup
Issued by NWS Lake Charles, LA

Home | Current Version | Previous Version | Text Only | Print | Product List | Glossary On
Versions: 1 2 3 4 5 6 7 8 9 10 11 12 13 14 15 16 17 18 19 20 21 22 23 24 25 26 27 28 29 30 31 32 33 34 35 36 37 38 39 40 41 42 43 44 45 46 47 48 49 50
000
ASUS44 KLCH 270110
RWRLCH
RWRLCH
REGIONAL WEATHER ROUNDUP
NATIONAL WEATHER SERVICE LAKE CHARLES LA
700 PM CST MON JAN 26 2015

Note: "fair" indicates few or no clouds below 12,000 feet with no
significant weather and/or obstructions to visibility.


ACROSS SOUTHEAST TEXAS

CITY           SKY/WX    TMP DP  RH WIND       PRES   REMARKS
BEAUMONT       MOCLDY    55  38  52 W6        30.14R
BEAUMONT CITY    N/A     57  41  55 SW5       30.15R
ORANGE         PTCLDY    51  41  69 CALM      30.15R
JASPER         PTCLDY    49  41  74 CALM      30.14R
$$

ACROSS CENTRAL LOUISIANA

CITY           SKY/WX    TMP DP  RH WIND       PRES   REMARKS
LEESVILLE      CLEAR     53  38  58 S2        30.09S
FULLERTON        N/A     49  37  63 CALM      30.08R
ALEXANDRIA INT CLEAR     50  39  66 CALM      30.08S
ESLER FIELD    CLEAR     46  38  73 CALM      30.09S
DERIDDER         N/A     50  40  68 CALM      30.12S
OAKDALE        CLEAR     43  40  89 SW5       30.12R
OPELOUSAS        N/A     48  40  72 CALM      30.11S
$$

ACROSS SOUTHWEST AND SOUTH CENTRAL LOUISIANA

CITY           SKY/WX    TMP DP  RH WIND       PRES   REMARKS
SULPHUR        PTCLDY    53  37  53 CALM      30.14R
LAKE CHARLES   PTCLDY    53  38  56 W3        30.13R
CHENNAULT INT  CLEAR     55  37  50 CALM      30.13
CAMERON PHI      N/A     54  50  87 W6        30.17R
DEQUINCY         N/A     47  41  78 CALM      30.13R
JENNINGS         N/A     55  40  56 W3        30.12S
LAFAYETTE      CLEAR     50  40  68 S3        30.12R
NEW IBERIA     CLEAR     50  41  71 SW3       30.13R
ABBEVILLE        N/A     50  40  69 CALM      30.13R
PATTERSON      CLEAR     54  36  50 W7        30.14R
SALT POINT       N/A     53  48  83 W6        30.12R
$$

SELECTED SITES ACROSS THE REGION

CITY           SKY/WX    TMP DP  RH WIND       PRES   REMARKS
HOUSTON BUSH   MOCLDY    52  41  66 CALM      30.15R
HOUSTON HOBBY  MOCLDY    59  39  47 S3        30.16R
GALVESTON      MOCLDY    56  50  80 SW9       30.18R
COLLEGE STAT   MOCLDY    57  43  59 CALM      30.14S
CONROE         MOCLDY    49  43  80 CALM      30.15S
HUNTSVILLE     MOCLDY    56  39  53 S3        30.13S
LUFKIN         PTCLDY    59  37  44 SW6       30.11R
SHREVEPORT     PTCLDY    54  36  50 SW5       30.05F
MONROE         CLEAR     50  35  56 SW5       30.06S
NATCHEZ MS     CLEAR     46  34  61 S5        30.08F
BATON ROUGE    CLEAR     50  36  58 CALM      30.11R
N.O. INTL ARPT PTCLDY    53  36  52 NW6       30.10R
SLIDELL        CLEAR     49  37  63 CALM      30.09R
$$

MARINE REPORTS

STATION/POSITION TIME  TEMP    WIND        PRES    VSBY  WAVE
                       AIR SEA DIR/SP/G                  HT/PER
                 (UTC) (F)     (DEG/KT/KT) (MB)    (MI)  (FT/S)
BUOY 30 S HIGH I 0100   56 56  220/ 10/ 12 1021.2R         1
SEA RIM ST PARK  0100   53     250/  7/  8 1021.5R
PORT ARTHUR      0100      53  280/  6/  9 1020.6R
SABINE PASS N    NOT AVBL
TEXAS POINT      NOT AVBL
CALCASIEU PASS   0100   55 54  260/  7/  9   N/A
LK CHARLES BEACH 0100   59 54              1020.3R
MARSH ISLAND     0000   55     280/ 12/ 15   N/A
FRESH WATER LOCK 0100   52 54  250/  4/  5 1020.4S
AMERADA PASS     0100   52 47  240/  5/  8 1020.1R
$$


USA.gov is the U.S. government's official web portal to all federal, state and local government web resources and services.